DETNC EDFB-EDDN

Flight info

Callsign DETNC
Flight time N/A
Altitude
Route
Aircraft PA28

Departure

Time N/A
Airport Reichelsheim Airfield (EDFB)

Arrival

Time 2026-04-29 14:48
Airport Nuremberg Airport (EDDN)
Time Latitude Longitude Altitude Speed Heading
2026-04-29 14:37 49.64902 10.70219 2988 ft 103 kts 103°
2026-04-29 14:37 49.64634 10.71199 3015 ft 97 kts 107°
2026-04-29 14:37 49.64380 10.72205 3024 ft 103 kts 105°
2026-04-29 14:38 49.64107 10.73232 3008 ft 104 kts 106°
2026-04-29 14:38 49.63835 10.74291 3010 ft 108 kts 106°
2026-04-29 14:38 49.63566 10.75327 2998 ft 100 kts 104°
2026-04-29 14:38 49.63308 10.76296 3000 ft 95 kts 105°
2026-04-29 14:39 49.63053 10.77206 3000 ft 92 kts 105°
2026-04-29 14:39 49.62792 10.78095 2996 ft 90 kts 108°
2026-04-29 14:39 49.62490 10.78937 3030 ft 89 kts 110°
2026-04-29 14:39 49.62186 10.79842 3026 ft 103 kts 110°
2026-04-29 14:40 49.61841 10.80852 3014 ft 109 kts 112°
2026-04-29 14:40 49.61499 10.81907 2998 ft 109 kts 108°
2026-04-29 14:40 49.61177 10.82915 3021 ft 104 kts 109°
2026-04-29 14:40 49.60851 10.83896 3004 ft 100 kts 109°
2026-04-29 14:41 49.60550 10.84833 3006 ft 98 kts 108°
2026-04-29 14:41 49.60234 10.85798 3003 ft 103 kts 109°
2026-04-29 14:41 49.59933 10.86817 3001 ft 102 kts 105°
2026-04-29 14:41 49.59666 10.87803 2997 ft 97 kts 105°
2026-04-29 14:42 49.59404 10.88727 3005 ft 94 kts 105°
2026-04-29 14:42 49.59131 10.89709 3015 ft 105 kts 109°
2026-04-29 14:42 49.58837 10.90768 2950 ft 107 kts 104°
2026-04-29 14:42 49.58629 10.91825 2959 ft 102 kts 95°
2026-04-29 14:43 49.58543 10.92904 3008 ft 102 kts 92°
2026-04-29 14:43 49.58472 10.93997 3031 ft 101 kts 96°
2026-04-29 14:43 49.58115 10.94967 2965 ft 112 kts 122°
2026-04-29 14:43 49.57621 10.95883 2954 ft 111 kts 121°
2026-04-29 14:44 49.57128 10.96789 2934 ft 110 kts 122°
2026-04-29 14:44 49.56643 10.97663 2979 ft 104 kts 122°
2026-04-29 14:44 49.56127 10.98410 3033 ft 103 kts 132°
2026-04-29 14:44 49.55478 10.98962 3027 ft 111 kts 146°
2026-04-29 14:45 49.54748 10.99456 2996 ft 115 kts 148°
2026-04-29 14:45 49.54002 10.99939 2942 ft 115 kts 146°
2026-04-29 14:45 49.53308 11.00541 2712 ft 119 kts 141°
2026-04-29 14:45 49.52614 11.01227 2457 ft 116 kts 138°
2026-04-29 14:46 49.51955 11.01883 2296 ft 109 kts 138°
2026-04-29 14:46 49.51330 11.02482 2125 ft 104 kts 137°
2026-04-29 14:46 49.50764 11.03040 1911 ft 90 kts 137°
2026-04-29 14:46 49.50358 11.03652 1624 ft 75 kts 109°
2026-04-29 14:47 49.50211 11.04376 1368 ft 67 kts 92°
2026-04-29 14:47 49.50144 11.05063 1226 ft 62 kts 92°
2026-04-29 14:47 49.50077 11.05718 1095 ft 62 kts 95°
2026-04-29 14:47 49.50034 11.06147 1033 ft 57 kts 95°
2026-04-29 14:48 49.49974 11.06764 1029 ft 34 kts 99°
2026-04-29 14:48 49.49931 11.07013 1031 ft 11 kts 161°
2026-04-29 14:48 49.49863 11.07025 1032 ft 8 kts 163°
2026-04-29 14:48 49.49847 11.07034 1032 ft 0 kts 159°
2026-04-29 14:50 49.49830 11.07044 1032 ft 8 kts 159°
2026-04-29 14:50 49.49763 11.07090 1033 ft 13 kts 143°
2026-04-29 14:50 49.49717 11.07228 1034 ft 16 kts 150°
2026-04-29 14:51 49.49588 11.07208 1034 ft 21 kts 187°
2026-04-29 14:51 49.49513 11.07092 1033 ft 19 kts 278°
2026-04-29 14:51 49.49512 11.06925 1032 ft 12 kts 192°
2026-04-29 14:51 49.49440 11.06893 1032 ft 10 kts 191°
2026-04-29 14:52 49.49408 11.06946 1032 ft 0 kts 97°